Location: Las Juntas
(37.9319°N, 122.0544°W)
Time: 23:24:55
(UTC+00:00)

Daily predictions for brighter satellites

Satellite Brightness Start Highest point End
(mag) Time Altitude Azimuth Time Altitude Azimuth Time Altitude Azimuth
Cosmos 2344 4.0 12:25:34 31° S 12:29:17 58° ESE 12:36:48 10° NE
Cosmos 2219 3.8 12:35:50 51° SE 12:35:50 51° SE 12:40:13 10° SSE
CZ-3B R/B 3.6 12:46:38 14° SSE 12:46:38 14° SSE 12:47:48 10° SE
COSMO-SKYMED 1 4.4 12:42:16 10° SE 12:45:58 29° ENE 12:47:24 23° NE
ALOS 3.9 12:45:53 10° NNE 12:50:06 33° E 12:54:17 10° SSE
Cosmos 2297 Rocket 2.4 12:52:52 62° NNE 12:53:35 69° ENE 12:59:12 10° SSE
Cosmos 2074 Rocket 4.2 12:47:27 10° N 12:53:42 69° E 12:59:53 10° SSE
USA 215 3.6 12:52:02 10° ESE 12:58:24 59° NE 13:00:47 38° NNW
BREEZE M DEB (TANK) 4.2 12:57:50 48° W 12:59:54 57° SW 13:04:03 10° SSE
BREEZE-M DEB (TANK) 4.0 12:59:26 35° NW 13:04:52 85° NE 13:09:11 10° ESE
Cosmos 2227 Rocket 2.2 13:03:53 52° N 13:05:17 78° ENE 13:10:55 10° SSE
Lacrosse 5 rocket 4.2 13:09:09 10° N 13:09:09 10° N 13:09:12 10° N
COSMOS 2455 4.3 13:03:02 10° S 13:08:25 36° ESE 13:13:51 10° NE
BREEZE-M DEB (TANK) 4.2 13:12:48 23° E 13:12:48 23° E 13:13:46 10° ESE
Cosmos 1758 3.8 13:08:17 10° S 13:12:41 58° ENE 13:16:13 10° NNE
Cosmos 1626 2.9 13:13:49 48° SE 13:13:49 48° SE 13:16:45 10° SSE
Cosmos 2278 4.0 13:11:08 10° S 13:16:47 67° ESE 13:22:27 10° NNE
Cosmos 1953 3.7 13:16:31 10° SSE 13:20:17 40° E 13:24:06 10° NNE
ATLAS 2AS CENTAUR R/B 4.4 13:13:34 10° S 13:20:40 39° ESE 13:27:56 10° NE
Cosmos 1656 4.3 13:23:17 36° NNW 13:23:17 36° NNW 13:27:02 10° N
Cosmos 1538 Rocket 4.5 13:16:42 10° S 13:21:59 62° ESE 13:27:14 10° NNE
Cosmos 2369 3.6 13:19:55 17° SSW 13:24:21 76° WNW 13:30:07 10° NNE
STARLINK-61 4.2 13:27:34 34° S 13:28:57 53° SE 13:32:50 10° ENE
Cosmos 1602 Rocket 3.4 13:27:48 27° N 13:30:06 85° E 13:34:24 10° S
CZ-3 Stage 3 3.8 13:29:57 27° WSW 13:32:14 34° SSW 13:35:35 10° SE
STARLINK-26 3.1 13:33:16 80° NE 13:33:16 80° NE 13:36:37 10° NE
SKYMED 2 3.4 13:29:30 10° S 13:33:49 81° WSW 13:35:57 30° NNW
Cosmos 44 4.0 13:36:10 31° SW 13:36:10 31° SW 13:39:19 10° S
PAYLOAD B 4.4 13:30:04 10° NNE 13:35:41 76° ESE 13:41:17 10° S
SJ-12 3.7 13:31:49 10° N 13:35:52 68° WNW 13:39:53 10° SSW
Cosmos 1726 4.0 13:35:13 10° SSE 13:38:30 32° E 13:41:48 10° NNE
Iridium 2 4.4 13:35:34 10° SSW 13:45:05 - N 13:38:06 38° SW
METEOR-M 4.0 13:35:37 10° N 13:40:59 77° WNW 13:46:18 10° SSW
Okean O Rocket 2.1 13:37:00 10° NNE 13:41:26 63° E 13:45:49 10° S
Cosmos 44 Rocket 4.2 13:38:08 17° NNW 13:41:35 45° NE 13:46:08 10° SE
Nadezhda 1 Rocket 3.9 13:36:42 10° SSW 13:42:41 60° W 13:48:42 10° N
Cosmos 2327 Rocket 4.4 13:36:45 10° NNW 13:42:59 69° W 13:49:05 10° S
CZ-4B R/B 3.6 13:39:58 10° NNE 13:45:32 67° ESE 13:50:57 10° S
STARLINK-75 4.2 13:43:04 14° SSW 13:46:16 51° SE 13:50:03 10° ENE
Cosmos 1758 Rocket 4.3 13:42:16 10° N 13:46:33 53° E 13:50:51 10° SSE
SEDSat Delta rocket 4.4 13:44:22 22° WSW 13:47:41 43° S 13:52:40 10° ESE
MOS 1-B 4.2 13:41:59 10° N 13:47:44 69° WNW 13:53:28 10° SSW
NOSS 2-2 (D) 3.2 13:47:33 50° WNW 13:47:51 52° NW 13:51:37 10° NNE
STARLINK-62 4.4 13:45:13 10° SSW 13:49:05 49° SE 13:52:59 10° ENE
NOAA 6 4.1 13:44:41 10° NNE 13:49:54 81° ESE 13:55:05 10° S
Cosmos 1980 Rocket 2.1 13:46:01 10° SSW 13:51:43 86° WNW 13:57:26 10° NNE
Meteor 1-24 Rocket 4.4 13:51:26 28° WNW 13:52:49 31° W 13:57:55 10° SSW
Cosmos 1470 4.5 13:55:14 18° NNW 13:55:14 18° NNW 13:56:31 10° N
Cosmos 1626 Rocket 4.0 13:52:57 34° WNW 13:53:45 37° W 13:57:46 10° SSW
STARLINK-28 3.6 13:51:11 17° SSW 13:53:47 62° SE 13:57:18 10° NE
STARLINK-41 4.2 13:52:54 10° SSW 13:56:41 54° SE 14:00:29 10° ENE
USA 116 4.1 13:54:09 10° S 13:59:13 76° WSW 14:03:50 10° NNW
Cosmos 1697 Rocket 3.1 13:55:51 10° SW 14:01:03 38° WNW 14:06:16 10° N
FENGYUN 3A 3.8 13:56:42 10° N 14:01:53 50° WNW 14:07:04 10° SW
Helios 1A Rocket 2.9 13:58:14 10° NNE 14:02:23 84° ESE 14:06:30 10° SSW
STARLINK 4.0 14:01:44 10° SW 14:05:32 60° SE 14:09:21 10° NE
Meteor 2-10 4.2 14:04:22 10° S 14:10:01 83° E 14:15:30 10° N
STARLINK-34 3.6 14:06:31 10° SW 14:10:31 79° SE 14:14:33 10° NE
DMSP B5D1-3 4.4 14:06:58 10° S 14:12:05 79° WSW 14:17:13 10° NNW
STARLINK-24 3.6 14:08:51 10° SW 14:12:52 82° SE 14:16:53 10° NE
Cosmos 1825 Rocket 3.4 14:09:06 10° N 14:13:26 86° W 14:17:47 10° S
STARLINK-81 3.7 14:09:36 10° SW 14:13:36 76° SE 14:17:37 10° NE
Meteor 2-17 Rocket 4.4 14:07:56 10° NNW 14:13:55 61° W 14:19:51 10° S
Cosmos 2154 Rocket 4.3 14:08:21 10° NNW 14:14:10 44° W 14:19:58 10° SSW
STARLINK-54 3.5 14:11:23 10° SW 14:15:24 86° SE 14:19:26 10° NE
Abrixas rocket 4.5 14:15:41 11° NNW 14:16:51 12° N 14:18:14 10° NE
STARLINK-77 3.6 14:12:53 10° SW 14:16:54 82° SE 14:20:55 10° NE
STARLINK-25 3.5 14:14:33 10° SW 14:18:34 85° SE 14:22:35 10° NE
STARLINK-71 3.5 14:16:23 10° SW 14:20:24 84° NW 14:24:26 10° NE
STARLINK-79 3.5 14:17:50 10° SW 14:21:51 89° N 14:25:53 10° NE
COSMO-SKYMED 1 3.8 14:18:42 10° SSW 14:22:06 22° W 14:24:36 14° NW
CZ-3B R/B 3.4 14:20:59 10° SW 14:22:55 13° SSW 14:24:58 10° SSE
STARLINK-78 3.5 14:19:31 10° SW 14:23:32 86° NW 14:27:34 10° NE
Cosmos 2082 4.3 14:18:36 11° NW 14:23:34 37° WSW 14:28:45 10° S
STARLINK-57 3.4 14:21:16 10° SW 14:25:17 79° NW 14:29:20 10° NE
NOSS 2-2 (C) 4.5 14:25:08 17° W 14:26:40 21° NW 14:29:43 10° N
STARLINK-49 3.5 14:22:48 10° SW 14:26:49 81° NW 14:30:51 10° NE
ALOS 3.3 14:23:40 10° NNW 14:27:18 23° WNW 14:30:55 10° WSW
SL-4 R/B 3.3 14:25:02 10° NNW 14:28:00 24° NNE 14:30:52 10° E
Cosmos 1606 Rocket 3.7 14:23:54 10° SSW 14:28:14 50° W 14:32:34 10° N
STARLINK-27 3.4 14:24:28 10° SW 14:28:28 78° NW 14:32:30 10° NE
STARLINK-74 3.5 14:26:06 10° SW 14:30:07 76° NW 14:34:09 10° NE
Cosmos 1726 Rocket 3.6 14:27:02 10° SSW 14:31:25 59° W 14:35:49 10° N
STARLINK-39 3.5 14:27:46 10° SW 14:31:47 73° NW 14:35:49 10° NE
STARLINK 3.5 14:29:27 10° SW 14:33:26 70° NW 14:37:27 10° NE
STARLINK-69 3.5 14:31:19 10° WSW 14:35:18 62° NW 14:39:18 10° NE
AQUARIUS 4.2 14:31:45 10° NNE 14:36:15 89° ESE 14:40:44 10° SSW
NOSS 3-4 (A) 3.4 14:30:24 10° SSW 14:36:21 88° ESE 14:42:35 10° NNE
NOSS 3-4 (C) 3.5 14:30:31 10° SSW 14:36:27 87° ESE 14:42:41 10° NNE
STARLINK-21 3.5 14:32:48 10° WSW 14:36:48 65° NW 14:40:48 10° NE
Cosmos 2297 Rocket 3.8 14:34:44 12° WNW 14:36:55 14° W 14:39:48 10° SW
CORIOLIS 4.4 14:32:25 10° NNE 14:37:47 75° ESE 14:43:07 10° S
Cosmos 1959 Rocket 4.5 14:32:06 10° N 14:38:14 88° W 14:44:23 10° S
STARLINK-45 3.6 14:34:43 10° WSW 14:38:40 56° NW 14:42:38 10° NE
Cosmos 2322 Rocket 3.0 14:33:14 10° S 14:38:44 57° ESE 14:44:18 10° NNE
BREEZE M DEB (TANK) 3.8 14:37:21 13° WNW 14:39:25 28° NNW 14:44:02 10° NE
STARLINK-70 3.6 14:36:15 10° WSW 14:40:13 57° NW 14:44:12 10° NE
USA 215 4.0 14:35:38 10° SSE 14:41:32 36° SW 14:47:30 10° WNW
STARLINK-76 3.6 14:37:47 10° WSW 14:41:46 58° NW 14:45:44 10° NE
CZ-4 R/B 4.0 14:38:33 10° NE 14:42:08 26° E 14:45:42 10° SSE
STARLINK 3.6 14:39:29 10° WSW 14:43:26 56° NW 14:47:24 10° NE
ATLAS 3B R/B 3.9 14:37:17 10° NNW 14:43:34 39° NE 14:49:59 10° ESE
Cosmos 2344 4.4 14:37:53 10° W 14:44:14 28° NW 14:51:08 10° NNE
STARLINK-32 3.7 14:41:06 10° WSW 14:45:02 54° NW 14:49:00 10° NE
Cosmos 2366 rocket 4.1 14:39:44 10° N 14:46:07 80° W 14:52:27 10° S
STARLINK-40 3.7 14:42:48 10° WSW 14:46:44 53° NW 14:50:41 10° NE
NOAA 12 4.4 14:41:36 10° NNE 14:46:54 74° ESE 14:52:11 10° S
Cosmos 923 Rocket 4.2 14:42:51 10° SW 14:47:54 49° WNW 14:53:03 10° N
H-2A R/B 3.1 14:44:38 10° N 14:48:22 44° WNW 14:52:04 10° SSW
STARLINK-44 3.7 14:44:28 10° WSW 14:48:23 51° NW 14:52:19 10° NE
Cosmos 2227 Rocket 3.9 14:46:24 10° WNW 14:48:32 12° W 14:50:40 10° WSW
CZ-2C R/B 4.4 14:45:06 10° SSE 14:49:40 60° ENE 14:54:11 10° N
NOSS 3-2 (A) 4.2 14:42:19 10° NW 14:50:06 75° WSW 14:58:37 10° SSE
STARLINK-37 3.8 14:46:17 10° WSW 14:50:11 47° NW 14:54:05 10° NE
IRS-1C Rocket 4.1 14:45:27 10° N 14:50:43 74° WNW 14:55:58 10° SSW
STARLINK-36 3.8 14:47:49 10° WSW 14:51:43 48° NW 14:55:37 10° NE
STARLINK-68 4.0 14:49:44 10° WSW 14:53:34 42° NW 14:57:25 10° NE
COSMOS 2455 3.4 14:48:52 10° WSW 14:54:18 35° NW 14:59:47 10° N
STARLINK-63 4.0 14:51:18 10° WSW 14:55:08 43° NW 14:58:59 10° NE
